Regional Weather Roundup
Issued by NWS Cleveland, OH

Home | Current Version | Previous Version | Text Only | Print | Product List | Glossary Off
Versions: 1 2 3 4 5 6 7 8 9 10 11 12 13 14 15 16 17 18 19 20 21 22 23 24 25 26 27 28 29 30 31 32 33 34 35 36 37 38 39 40 41 42 43 44 45 46 47 48 49 50

000
ASUS41 KCLE 232210
RWRCLE
OHIO REGIONAL WEATHER ROUNDUP
NATIONAL WEATHER SERVICE WILMINGTON, OH
600 PM EDT SAT MAY 23 2015

NOTE: "FAIR" INDICATES FEW OR NO CLOUDS BELOW 12,000 FEET WITH NO
SIGNIFICANT WEATHER AND/OR OBSTRUCTIONS TO VISIBILITY.

OHZ001>008-015>018-024>027-034-035-043-044-232300-
   NORTHWEST OHIO

CITY           SKY/WX    TMP DP  RH WIND       PRES   REMARKS
DEFIANCE       SUNNY     79  40  24 VRB3      30.27F
FINDLAY        SUNNY     79  39  23 W5        30.28F
TOLEDO EXPRESS SUNNY     77  36  22 W7G21     30.28F
TOLEDO EXEC    SUNNY     77  40  26 NE10G16   30.29F
LIMA           MOSUNNY   76  44  32 S6        30.29F
$$

OHZ009>014-019>023-028>033-038-089-232300-
   NORTHEAST OHIO

CITY           SKY/WX    TMP DP  RH WIND       PRES   REMARKS
CLE-HOPKINS    MOSUNNY   71  35  26 N8        30.35F
CLE-LAKEFRONT  SUNNY     65  42  43 NE8       30.32F
CUY CO. ARPT   MOSUNNY   72  39  30 NE9       30.35F
LORAIN-ELYRIA  SUNNY     73  38  27 E9        30.32F
ASHTABULA      SUNNY     69  30  23 N6        30.36F
AKRON-CANTON   SUNNY     72  37  28 VRB7      30.34F
WOOSTER        SUNNY     74  33  22 W7        30.34F
MANSFIELD      SUNNY     74  37  26 SW6       30.33F
YOUNGSTOWN     MOSUNNY   71  33  24 CALM      30.34F
$$

OHZ042-051>053-060>062-070>072-077>081-232300-
  SOUTHWEST OHIO

CITY           SKY/WX    TMP DP  RH WIND       PRES   REMARKS
CINC-COVINGTON PTSUNNY   78  44  29 S7        30.30F
CINC-LUNKEN    SUNNY     78  45  30 SE5       30.30F
HAMILTON       SUNNY     80  42  25 E5        30.31F
DAYTON         MOSUNNY   78  44  29 SE8       30.32F
WRIGHT-PAT AFB SUNNY     78  43  28 VRB1      30.30F
DAYTON GENERAL SUNNY     76  46  34 S10       30.30F
WILMINGTON     SUNNY     78  38  23 CALM      30.31F
$$

OHZ036-037-039>041-045>050-054>059-063>069-073>076-082>088-232300-
  CENTRAL AND SOUTHEAST OHIO

CITY           SKY/WX    TMP DP  RH WIND       PRES   REMARKS
COLUMBUS       MOSUNNY   76  41  28 E3        30.31F
OSU AIRPORT    PTSUNNY   77  40  26 SE3       30.31F
BOLTON FIELD   MOSUNNY   77  45  31 CALM      30.32F
RICKENBACK AFB SUNNY     76  42  29 E6        30.31F
NEWARK         SUNNY     75  44  33 NW3       30.33F
MARION         SUNNY     77  36  22 VRB5      30.31F
LANCASTER      SUNNY     77  36  22 W5        30.33F
ZANESVILLE     SUNNY     74  36  25 VRB3      30.34F
NEW PHILLY     SUNNY     76  37  24 W3        30.35F
$$


USA.gov is the U.S. government's official web portal to all federal, state and local government web resources and services.